www.pogodaiklimat.ru

Погода и климат >> Архив погоды >> Россия >> Кировская область >> Киров


АРХИВ ПОГОДЫ в Кирове

Время (UTC), дата Ветер
(напр.,м/с)
 
Видим.   Явления Облачность Т
(С)
Тd
(С)
f
(%)
Тe
(С)
Тes
(С)
Комфортность P
(гПа)
Po
(гПа)
Тmin
(С)
Tmax
(С)
R
(мм)
R24
(мм)
S
(см)
18 10.09 ЮЗ 1-1
{2}
20 км 3/0
[Ac As Cs]
+9.4 +6.7 83 +9 +9 по сезону 1032.0 1012.5
21 10.09 штиль 0
{1}
20 км ясно +8.4 +6.2 86 +8 +8 по сезону 1032.5 1012.9
00 11.09 штиль 0
{1}
20 км 3/0
[Cs]
+7.7 +6.1 90 +7 +7 по сезону 1033.4 1013.8
03 11.09 штиль 0
{1}
20 км 8/8 600 м
[Sc Ci sp]
+9.5 +7.0 84 +9 +9 по сезону 1033.8 1014.3 +7.4
06 11.09 З 2-3
{3}
20 км 1/0
[Ci fib]
+16.5 +8.2 58 +17 +21 тепло 1033.2 1014.1
09 11.09 З 2-6
{6}
20 км 8/6 600 м
[Cu hum Ci fib]
+20.4 +7.7 44 +22 +25 комфорт 1032.4 1013.6
12 11.09 ЮЗ 2-4
{6}
20 км 8/5 600 м
[Cu Sc Ci fib]
+21.5 +8.1 42 +23 +24 комфорт 1031.3 1012.6
15 11.09 штиль 0
{5}
20 км 10/0
[Ci]
+15.0 +9.4 69 +15 +15 тепло 1030.6 1011.5 +21.5
18 11.09 З 1-1
{2}
20 км 10/0
[Ci]
+11.5 +8.0 79 +11 +11 по сезону 1030.7 1011.4
21 11.09 штиль 0
{2}
20 км 10/0
[Ci]
+9.9 +7.6 86 +9 +9 по сезону 1030.2 1010.8
00 12.09 ЮЗ 1-1
{2}
20 км ясно +9.3 +7.3 87 +9 +9 по сезону 1029.8 1010.3
03 12.09 ЮЗ 1-3
{3}
20 км 8/0
[Ci fib]
+11.3 +8.4 82 +11 +11 тепло 1028.8 1009.5 +8.8
06 12.09 ЮЗ 2-5
{5}
20 км 10/3 600 м
[Cu hum Ac und Ci]
+17.4 +9.8 61 +18 +19 тепло 1027.5 1008.6
09 12.09 ЮЗ 2-4
{5}
20 км 10/0
[Ac und Ci]
+21.4 +11.3 53 +23 +28 комфорт 1026.2 1007.6
12 12.09 ЮЗ 2-5
{6}
20 км 10/1 600 м
[Cu hum Ac und Ci fib]
+23.3 +11.3 47 +26 +27 жарко 1024.7 1006.2
15 12.09 ЮЗ 1-2
{5}
20 км 6/1 600 м
[Cu hum Ac und Ci fib]
+18.7 +10.8 60 +20 +20 тепло 1023.6 1004.9 +23.7
18 12.09 ЮЗ 1-3
{4}
20 км 8/5 600 м
[Sc Ac As]
+16.6 +9.7 64 +18 +18 тепло 1023.0 1004.2
21 12.09 ЮЗ 1-2
{4}
20 км 8/0
[Ac As Ci fib]
+13.8 +9.0 73 +14 +14 тепло 1022.4 1003.4
00 13.09 ЮЗ 1-2
{3}
20 км 10/5 600 м
[Sc Ac und Ci fib]
+14.0 +9.3 73 +14 +14 тепло 1021.5 1002.6
03 13.09 ЮЗ 2-3
{3}
20 км 10/8 600 м
[Cb calv Ac und Ci fib]
+13.1 +8.8 75 +12 +12 тепло 1020.5 1001.5 +13.1
06 13.09 ЮЗ 2-5
{5}
20 км ясно +19.1 +9.1 52 +20 +24 тепло 1019.0 1000.4 +13.0
09 13.09 ЮЗ 2-6
{7}
20 км ясно +23.7 +6.1 32 +24 +30 комфорт 1017.3 999.0
12 13.09 ЮЗ 3-8
{9}
20 км 3/3 600 м
[Cb calv]
+23.8 +6.4 33 +24 +26 комфорт 1015.3 997.1
15 13.09 ЮЗ 1-3
{8}
20 км 8/4 600 м
[Cb calv Ac trans]
+18.5 +8.3 51 +20 +20 тепло 1014.5 995.9 +24.1
18 13.09 ЮЗ 2-4
{5}
20 км 6/0
[Ci fib]
+16.9 +7.7 55 +17 +17 тепло 1014.0 995.3
21 13.09 З 1-2
{5}
20 км 9/0
[Ci]
+15.3 +7.5 60 +16 +16 тепло 1012.4 993.6
00 14.09 ЮЗ 1-3
{3}
20 км 6/0
[Ac trans Ci fib]
+13.8 +7.0 64 +14 +14 тепло 1010.9 992.1
03 14.09 ЮЗ 1-4
{4}
20 км 9/6 600 м
[Cb calv Ac trans Ci fib]
+13.3 +7.5 68 +14 +14 тепло 1009.5 990.7 +12.5
06 14.09 Ю 2-4
{4}
20 км 8/6 600 м
[Cb calv Ac cast Ci sp]
+17.0 +8.5 57 +17 +19 тепло 1006.9 988.4
09 14.09 Ю 2-6
{7}
20 км 10/8 600 м
[Cb calv Ac As]
+19.1 +8.0 49 +20 +21 тепло 1005.5 987.2
12 14.09 ЮЗ 3-7
{12}
20 км в посл. час ливневой дождь 10/8 600 м
[Cb calv Ac trans]
+17.7 +8.1 53 +18 +18 тепло 1005.1 986.7
15 14.09 ЮЗ 2-6
{9}
20 км {ливн. осадки} 8/6 600 м
[Cb calv Ac trans]
+15.4 +7.8 60 +15 +15 тепло 1006.4 987.8 +19.9 0.0
18 14.09 ЮЗ 1-2
{7}
20 км {ливн. осадки} 3/0
[Ac As Ci fib]
+10.0 +6.8 80 +10 +10 по сезону 1008.2 989.2
21 14.09 ЮЗ 1-2
{3}
20 км 10/3 1000 м
[Sc Cs]
+8.8 +5.9 82 +8 +8 по сезону 1008.3 989.2
00 15.09 ЮЗ 1-3
{3}
20 км 10/0
[Cs]
+7.3 +4.9 85 +6 +6 по сезону 1008.7 989.5
03 15.09 ЮЗ 1-3
{3}
20 км 4/1 600 м
[Sc Ci fib]
+5.6 +4.0 89 +4 +4 прохладно 1008.7 989.3 +4.8
06 15.09 ЮЗ 1-4
{5}
20 км 4/3 300 м
[St Ci fib]
+10.2 +5.3 72 +10 +13 по сезону 1008.0 989.0
09 15.09 ЮЗ 3-8
{10}
20 км 8/8 600 м
[Cb calv]
+12.6 +1.8 48 +11 +13 по сезону 1007.4 988.6
12 15.09 ЮЗ 2-6
{8}
20 км 8/8 600 м
[Cb calv]
+13.0 +1.5 45 +13 +13 по сезону 1006.9 988.1
15 15.09 З 1-2
{9}
20 км 3/3 600 м
[Cb calv Ac lent]
+10.0 +1.6 56 +10 +10 по сезону 1006.6 987.6 +14.4
18 15.09 ЮЗ 1-2
{4}
20 км 3/0
[Ac lent]
+6.1 +1.8 74 +5 +5 прохладно 1006.6 987.3
21 15.09 ЮЗ 1-3
{3}
20 км 3/0
[Ci fib]
+4.7 +2.0 83 +3 +3 прохладно 1005.4 986.1
00 16.09 ЮЗ 1-3
{4}
20 км ясно +3.5 +1.4 86 +2 +2 прохладно 1004.2 984.8
03 16.09 ЮЗ 2-4
{4}
20 км слаб. ливневой дождь 10/10 600 м
[Cb cap]
+4.4 +1.9 84 +2 +2 прохладно 1001.8 982.5 +2.9 0.0
06 16.09 Ю 2-5
{7}
20 км {ливн. осадки} 10/8 300 м
[Cb calv Ac und]
+8.0 +4.0 76 +6 +6 по сезону 998.9 979.9
09 16.09 Ю 4-8
{9}
10 км слаб. ливневой дождь 10/10 300 м
[Cb calv]
+7.5 +5.1 85 +4 +4 холодно 996.5 977.5
12 16.09 Ю 2-6
{8}
10 км слаб. дождь 10/9 300 м
[Frnb As op]
+8.1 +6.2 88 +6 +6 холодно 994.1 975.3
15 16.09 ЮЗ 2-5
{6}
10 км слаб. дождь 10/9 300 м
[Frnb As op]
+8.7 +7.0 89 +7 +7 прохладно 992.9 974.1 +8.7 4
18 16.09 ЮЗ 2-5
{6}
20 км {дождь} 10/8 300 м
[Frnb As trans]
+8.9 +7.0 88 +7 +7 по сезону 992.5 973.7
21 16.09 ЮЗ 2-6
{6}
20 км 10/8 300 м
[Frnb Ac As]
+8.6 +6.8 88 +7 +7 по сезону 992.1 973.3
00 17.09 ЮЗ 1-4
{6}
20 км 10/8 300 м
[Frnb As trans]
+8.2 +6.3 88 +7 +7 по сезону 992.4 973.6
03 17.09 ЮЗ 2-4
{6}
20 км 10/10 300 м
[Cb calv]
+8.8 +6.6 86 +7 +7 по сезону 992.0 973.2 +7.8 0.1
06 17.09 Ю 2-5
{7}
20 км слаб. ливневой дождь 10/10 300 м
[Cb cap]
+9.0 +7.0 87 +7 +7 по сезону 992.1 973.3
09 17.09 ЮЗ 3-6
{8}
20 км слаб. ливневой дождь 10/8 300 м
[Cb cap As op]
+10.0 +7.7 86 +8 +8 по сезону 992.1 973.4
12 17.09 ЮЗ 3-7
{9}
10 км слаб. ливневой дождь 9/9 300 м
[Cb cap]
+11.0 +7.0 76 +9 +9 по сезону 991.8 973.2
15 17.09 ЮЗ 2-5
{7}
20 км в посл. час ливневой дождь 8/6 300 м
[Cb cap Ac trans]
+7.8 +5.9 88 +6 +6 прохладно 992.5 973.7 +12.1 4

 

Местоположение метеостанции Киров (Кировская область, Россия): широта 58.60 долгота 49.63 высота над уровнем моря 158 м.

В архиве по умолчанию представлена погода в Кирове за последнюю неделю. Архивные данные за месяц целиком и за предыдущие месяцы, начиная с января 2011 года, Вы можете получить, выбрав интересующий диапазон дат из раскрывающегося списка и нажав кнопку "Ввод!".


*Определитесь, кто Вы:
робот инопланетянин человек

Внимание! Время в таблицах - всемирное. Для получения местного времени необходимо прибавить поправку, которая равна 3 ч.

Смотрите также архив погоды в соседних городах и на ближайших метеорологических станциях:

Погода в Кумене (Кировская область, Россия) (58 км)
Погода в Белой Холунице (Кировская область, Россия) (75 км)
Погода в Котельниче (Кировская область, Россия) (82 км)
Погода в Даровском (Кировская область, Россия) (98 км)
Погода в Нагорске (Кировская область, Россия) (106 км)
Погода в Фаленках (Кировская область, Россия) (116 км)
Погода в Нолинске (Кировская область, Россия) (118 км)
Погода в Уни (Кировская область, Россия) (145 км)
Погода в Шабалино (Кировская область, Россия) (150 км)
Погода в Опарино (Кировская область, Россия) (159 км)

Пояснения к столбцам:

Ветер - указаны скорость ветра в м/с - средняя за 10 мин, порывы в срок и между сроками (в фигурных скобках) и направление, откуда дует ветер: С - северный, СВ - северо-восточный, В - восточный, ЮВ - юго-восточный, Ю - южный, ЮЗ - юго-западный, З - западный, СЗ - северо-западный.
Видимость - горизонтальная дальность видимости в метрах или километрах. При видимости от 1 до 10 км при отсутствии осадков обычно наблюдается дымка, при ухудшении видимости до 1 км и менее - туман. В сухую погоду видимость может ухудшаться дымом, пылью или мглою.
Явления - указаны атмосферные явления, наблюдавшиеся в срок или в последний час перед сроком; фигурными скобками обозначены явления, наблюдавшиеся между сроками (за 1-3 часа до срока); квадратными скобками обозначены град или гололедные отложения с указанием их диаметра в мм.
Облачность - указаны через наклонную черту общая и нижняя облачность в баллах и высота нижней границы облаков в метрах; квадратными скобками обозначены формы облаков: Ci - перистые, Cs - перисто-слоистые, Cc - перисто-кучевые, Ac - высококучевые, As - высокослоистые, Sc - слоисто-кучевые, Ns - слоисто-дождевые, Cu - кучевые, Cb - кучево-дождевые. Подробнее классификацию облаков см. в Атласе облаков (PDF).
T - Температура воздуха - температура, измеренная на высоте 2 м над землей.
Td - Температура точки росы - температура, при понижении до которой содержащийся в воздухе водяной пар достигнет насыщения.
f - Относительная влажность воздуха - влажноcть воздуха, измеренная на высоте 2 м над землей.
Te - Эффективная температура - температура, которую ощущает одетый по сезону человек в тени. Характеристика душности погоды. При расчете учитывается влияние влажности воздуха и скорости ветра на теплоощущения человека.
Tes - Эффективная температура на солнце - температура, которую ощущает человек, с поправкой на солнечный нагрев. Характеристика знойности погоды. Зависит от высоты солнца над горизонтом, облачности и скорости ветра. Ночью, в пасмурную погоду, а также при ветре 12 м/с и более поправка равна нулю.
P - Атмосферное давление - приведенное к уровню моря атмосферное давление.
Po - Атмосферное давление - измеренное на уровне метеостанции атмосферное давление.
Tmin - Минимальная температура - минимум температуры воздуха на высоте 2 м над землей.
Tmax - Максимальная температура - максимум температуры воздуха на высоте 2 м над землей.
R - Количество осадков - Количество выпавших осадков за период времени, мм. При наведении курсора мыши на число - период времени, за который выпало указанное количество осадков.
R24 - Количество осадков - Количество выпавших осадков за 24 часа, мм.
S - Снежный покров - Высота снежного покрова, см. При наведении курсора мыши на число - состояние снежного покрова и степень покрытия местности в баллах.